Location: Clermont
(50.2608°N, 4.3172°E)
Time: 09:40:54
(UTC+00:00)

CZ-2D R/B - Pass Details

Date: 13 August 2020
Orbit: 792 x 845 km, 98.7° (Epoch: 20 September)

Event Time Altitude Azimuth Distance (km) Brightness Sun altitude
Rises 23:40:25 0° 31° (NNE) 3,417 6.2 -25.4°
Reaches altitude 10° 23:44:34 10° 62° (ENE) 2,475 4.9 -25.5°
Maximum altitude 23:46:38 12° 84° (E) 2,326 4.5 -25.5°
Enters shadow 23:48:16 11° 102° (ESE) 2,414 4.4 -25.5°
